Location: Table Mountain
(47.2500°N, 120.5778°W)
Time: 03:35:45
(UTC-07:00)

ISS - Pass Details

Date: 15 October 2017
Orbit: 401 x 408 km, 51.6° (Epoch: 21 October)

Event Time Altitude Azimuth Distance (km) Brightness Sun altitude
Rises 18:38:32 0° 292° (WNW) 2,319 1.2 -4.9°
Reaches altitude 10° 18:40:41 10° 284° (WNW) 1,458 0.3 -5.3°
Maximum altitude 18:43:45 38° 215° (SW) 631 -2.4 -5.8°
Drops below altitude 10° 18:46:49 10° 145° (SE) 1,454 -1.3 -6.3°
Sets 18:48:57 0° 137° (SE) 2,312 -0.3 -6.7°
